PSLV R/B, 40720

Orbit data source: Space-Track

PSLV R/B, 40720 is space debris in SSO originally from a launch on Fri, 10 Jul 2015 UTC launched from the Sirharikota (SRI). Debris objects in space refer to the collection of defunct objects orbiting the Earth. Examples of debris include non-operational satellites, rocket bodies, and fragments generated from explosions, collisions, or faulty payload assembly.

Loading next visibility...
Identifier
40720, 2015-032F
Orbit
SSO
Country
Flag of ININ / IND
Related business
Manufacturer
VSSC/LPSC
Mission
Spacecraft
Bus & Motor
PS-4, Unknown motor
Mass
920 kg wet, 920 kg dry
Launch date (UTC)
2015-07-10 (10 years ago)
Launch vehicle
Unknown
Launch site
Sirharikota (SRI)
Object type
Payload
Rocket body
Debris
Shape & HBR
Cyl + Cyl + 2 Nozzle, 1.6 m
Radar Cross Section
3.727 m², Large (>1 m²)

Expand to show TLE details & history
Last TLE update: 10 hours ago

TLE from 10 hours ago
0 PSLV R/B
1 40720U 15032F   25343.46405677  .00002445  00000-0  28573-3 0  9993
2 40720  98.1678 303.1371 0004605   8.5920 351.5373 14.86089328563113
Epoch: 2025-12-09T11:08Z
TLE epoch observation values (Epoch: 2025-12-09T11:08:14.504Z)
Latitude
Longitude
57.6283°
Altitude
610.007 km
Speed
7.556 km/s
True Right ascension
20h 12m 32s
True Declination
0° 00' 00"
Sunlit
Object was in daylight at epoch
Visualization orbit readout
Latitude
Unknown
Longitude
Unknown
Altitude
Unknown
Speed
Unknown
Apparent Right ascension
Unknown
Apparent Declination
Unknown
Sunlit
N/A
Visualization observer readout
Local Sidereal Time
18:53:29
Azimuth
Unknown
Elevation
Unknown
Doppler factor
Unknown
Orbital elements
Apogee altitude
610.43 km
Perigee altitude
603.997 km
Semi-major axis
6,985.351 km
Eccentricity
0.00046
Inclination
98.1678°
RAAN
303.1371°
Arg. of periapsis
8.592°
True anomaly
351.52953°
Mean anomaly
351.5373°
Eccentric anomaly
351.53342°
Mean motion
3.71758 °/min
Orbital period
96.84 mins
BSTAR
0.00028573
Loading maneuver chart data...
Computing Atmospheric mass density...
Loading historical data...
Loading historical data...
Loading historical data...
Loading historical data...
Loading historical data...
Loading historical data...
Loading historical data...
Other satellites on launch #32 in the year 2015 (2015-07-10 UTC)

Documentation

Showing up to 5 results
|